User: anonymous   Login
Location: Arbon
(43.0005°N, 0.7472°E)
Time: 18:45:30
(UTC+00:00)
Language:

Cosmos 2098 Rocket - Orbit

View from above orbital plane
View from above orbital plane
View from above satellite
View from above satellite

Ground track
Ground track

The orbit data is extracted from the following two-line orbital elements,

1 20775U 90078B   20303.92965719 +.00003699 +00000-0 +17699-3 0  9993
2 20775 082.9225 115.7105 0572478 137.8572 226.8148 14.34865773525020
Epoch (UTC): 29 October 2020 22:18:42
Eccentricity: 0.0572478
inclination: 82.9225°
perigee height: 366 km
apogee height: 1185 km
right ascension of ascending node: 115.7105°
argument of perigee: 137.8572°
revolutions per day: 14.34865773
mean anomaly at epoch: 226.8148°
orbit number at epoch: 52502

The dashed part of the orbit path shows where the satellite is in the earth's shadow,  

DLR